Time,TemperatureF,DewpointF,PressureIn,WindDirection,WindDirectionDegrees,WindSpeedMPH,WindSpeedGustMPH,Humidity,HourlyPrecipIn,Conditions,Clouds,dailyrainin,SoftwareType,DateUTC
2013-02-15 00:01:00,36.9,28.0,29.97,West,259,1.0,3.0,70,0.00,,,0.00,Wunderground PWS Mod,2013-02-15 05:01:00,
2013-02-15 00:11:00,36.8,27.9,29.98,SW,222,1.0,1.0,70,0.00,,,0.00,Wunderground PWS Mod,2013-02-15 05:11:00,
2013-02-15 00:21:00,36.4,27.9,29.98,SW,222,0.0,4.0,71,0.00,,,0.00,Wunderground PWS Mod,2013-02-15 05:21:00,
2013-02-15 00:31:00,36.0,27.5,29.98,SW,222,0.0,4.0,71,0.00,,,0.00,Wunderground PWS Mod,2013-02-15 05:31:00,
2013-02-15 00:41:00,36.0,27.5,29.98,South,186,1.0,4.0,71,0.00,,,0.00,Wunderground PWS Mod,2013-02-15 05:41:00,
2013-02-15 00:51:00,35.9,27.4,29.98,South,186,0.0,4.0,71,0.00,,,0.00,Wunderground PWS Mod,2013-02-15 05:51:00,
2013-02-15 01:01:00,35.6,27.8,29.98,SSW,205,0.0,4.0,73,0.00,,,0.00,Wunderground PWS Mod,2013-02-15 06:01:00,
2013-02-15 01:10:00,35.6,27.8,29.98,South,180,0.0,3.0,73,0.00,,,0.00,Wunderground PWS Mod,2013-02-15 06:10:00,
2013-02-15 01:11:00,35.7,27.6,29.98,South,180,1.0,1.0,72,0.00,,,0.00,Wunderground PWS Mod,2013-02-15 06:11:00,
2013-02-15 01:21:00,35.9,27.7,29.97,SW,216,1.0,3.0,72,0.00,,,0.00,Wunderground PWS Mod,2013-02-15 06:21:00,
2013-02-15 01:31:00,35.9,27.7,29.97,South,185,1.0,1.0,72,0.00,,,0.00,Wunderground PWS Mod,2013-02-15 06:31:00,
2013-02-15 01:41:00,35.6,27.8,29.97,SSW,197,1.0,3.0,73,0.00,,,0.00,Wunderground PWS Mod,2013-02-15 06:41:00,
2013-02-15 01:51:00,35.5,27.7,29.98,SSW,198,1.0,3.0,73,0.00,,,0.00,Wunderground PWS Mod,2013-02-15 06:51:00,
2013-02-15 02:01:00,35.4,27.9,29.97,South,177,0.0,3.0,74,0.00,,,0.00,Wunderground PWS Mod,2013-02-15 07:01:00,
2013-02-15 02:11:00,35.3,27.5,29.97,SSE,163,1.0,3.0,73,0.00,,,0.00,Wunderground PWS Mod,2013-02-15 07:11:00,
2013-02-15 02:21:00,35.3,27.5,29.98,South,175,1.0,1.0,73,0.00,,,0.00,Wunderground PWS Mod,2013-02-15 07:21:00,
2013-02-15 02:31:00,35.2,27.7,29.97,South,186,1.0,1.0,74,0.00,,,0.00,Wunderground PWS Mod,2013-02-15 07:31:00,
2013-02-15 02:41:00,34.9,27.8,29.97,South,186,0.0,3.0,75,0.00,,,0.00,Wunderground PWS Mod,2013-02-15 07:41:00,
2013-02-15 02:51:00,34.6,27.5,29.97,South,186,0.0,3.0,75,0.00,,,0.00,Wunderground PWS Mod,2013-02-15 07:51:00,
2013-02-15 03:01:00,34.1,27.3,29.97,South,186,0.0,3.0,76,0.00,,,0.00,Wunderground PWS Mod,2013-02-15 08:01:00,
2013-02-15 03:10:00,34.1,27.0,29.97,N/A,-737280,0.0,0.0,75,0.00,,,0.00,Wunderground PWS Mod,2013-02-15 08:10:00,
2013-02-15 03:11:00,33.6,26.8,29.97,South,186,0.0,0.0,76,0.00,,,0.00,Wunderground PWS Mod,2013-02-15 08:11:00,
2013-02-15 03:21:00,33.1,26.7,29.97,South,186,0.0,1.0,77,0.00,,,0.00,Wunderground PWS Mod,2013-02-15 08:21:00,
2013-02-15 03:31:00,32.8,26.4,29.97,South,186,0.0,0.0,77,0.00,,,0.00,Wunderground PWS Mod,2013-02-15 08:31:00,
2013-02-15 03:41:00,32.7,26.6,29.96,South,186,0.0,0.0,78,0.00,,,0.00,Wunderground PWS Mod,2013-02-15 08:41:00,
2013-02-15 03:51:00,32.8,26.4,29.96,South,186,0.0,1.0,77,0.00,,,0.00,Wunderground PWS Mod,2013-02-15 08:51:00,
2013-02-15 04:01:00,32.9,26.5,29.96,SW,215,1.0,1.0,77,0.00,,,0.00,Wunderground PWS Mod,2013-02-15 09:01:00,
2013-02-15 04:11:00,32.5,26.4,29.96,SW,216,0.0,2.0,78,0.00,,,0.00,Wunderground PWS Mod,2013-02-15 09:11:00,
2013-02-15 04:21:00,32.1,26.0,29.96,SW,216,0.0,2.0,78,0.00,,,0.00,Wunderground PWS Mod,2013-02-15 09:21:00,
2013-02-15 04:31:00,33.1,26.7,29.96,SSW,192,2.0,2.0,77,0.00,,,0.00,Wunderground PWS Mod,2013-02-15 09:31:00,
2013-02-15 04:41:00,33.9,27.1,29.96,South,189,2.0,2.0,76,0.00,,,0.00,Wunderground PWS Mod,2013-02-15 09:41:00,
2013-02-15 04:51:00,34.3,27.2,29.95,South,191,2.0,2.0,75,0.00,,,0.00,Wunderground PWS Mod,2013-02-15 09:51:00,
2013-02-15 05:01:00,34.3,26.9,29.96,South,180,1.0,1.0,74,0.00,,,0.00,Wunderground PWS Mod,2013-02-15 10:01:00,
2013-02-15 05:10:00,34.3,26.9,29.96,South,180,2.0,5.0,74,0.00,,,0.00,Wunderground PWS Mod,2013-02-15 10:10:00,
2013-02-15 05:11:00,34.1,27.0,29.96,SW,232,1.0,5.0,75,0.00,,,0.00,Wunderground PWS Mod,2013-02-15 10:11:00,
2013-02-15 05:21:00,34.4,27.0,29.96,SSE,162,1.0,1.0,74,0.00,,,0.00,Wunderground PWS Mod,2013-02-15 10:21:00,
2013-02-15 05:31:00,34.3,26.9,29.96,South,180,1.0,1.0,74,0.00,,,0.00,Wunderground PWS Mod,2013-02-15 10:31:00,
2013-02-15 05:41:00,33.8,26.4,29.96,South,180,0.0,5.0,74,0.00,,,0.00,Wunderground PWS Mod,2013-02-15 10:41:00,
2013-02-15 05:51:00,33.4,26.3,29.96,ESE,123,0.0,5.0,75,0.00,,,0.00,Wunderground PWS Mod,2013-02-15 10:51:00,
2013-02-15 06:01:00,33.8,26.7,29.95,SSW,194,1.0,1.0,75,0.00,,,0.00,Wunderground PWS Mod,2013-02-15 11:01:00,
2013-02-15 06:11:00,34.1,26.7,29.95,South,188,1.0,1.0,74,0.00,,,0.00,Wunderground PWS Mod,2013-02-15 11:11:00,
2013-02-15 06:21:00,34.5,27.1,29.95,South,191,1.0,3.0,74,0.00,,,0.00,Wunderground PWS Mod,2013-02-15 11:21:00,
2013-02-15 06:31:00,34.6,26.8,29.95,SSW,208,1.0,3.0,73,0.00,,,0.00,Wunderground PWS Mod,2013-02-15 11:31:00,
2013-02-15 06:40:00,34.6,26.8,29.95,South,180,1.0,7.0,73,0.00,,,0.00,Wunderground PWS Mod,2013-02-15 11:40:00,
2013-02-15 06:41:00,34.7,26.9,29.95,SW,235,1.0,3.0,73,0.00,,,0.00,Wunderground PWS Mod,2013-02-15 11:41:00,
2013-02-15 06:51:00,34.7,26.9,29.95,West,265,2.0,2.0,73,0.00,,,0.00,Wunderground PWS Mod,2013-02-15 11:51:00,
2013-02-15 07:01:00,34.5,27.1,29.95,SW,225,1.0,1.0,74,0.00,,,0.00,Wunderground PWS Mod,2013-02-15 12:01:00,
2013-02-15 07:11:00,34.3,26.9,29.95,SSE,166,1.0,5.0,74,0.00,,,0.00,Wunderground PWS Mod,2013-02-15 12:11:00,
2013-02-15 07:21:00,34.3,26.9,29.95,South,180,2.0,5.0,74,0.00,,,0.00,Wunderground PWS Mod,2013-02-15 12:21:00,
2013-02-15 07:31:00,34.3,27.2,29.95,South,179,1.0,5.0,75,0.00,,,0.00,Wunderground PWS Mod,2013-02-15 12:31:00,
2013-02-15 07:41:00,34.4,27.3,29.95,SW,214,2.0,2.0,75,0.00,,,0.00,Wunderground PWS Mod,2013-02-15 12:41:00,
2013-02-15 07:50:00,34.9,27.5,29.97,South,180,2.0,6.0,74,0.00,,,0.00,Wunderground PWS Mod,2013-02-15 12:50:00,
2013-02-15 07:51:00,34.6,27.2,29.96,WSW,257,1.0,5.0,74,0.00,,,0.00,Wunderground PWS Mod,2013-02-15 12:51:00,
2013-02-15 08:01:00,34.9,27.5,29.97,SW,235,2.0,2.0,74,0.00,,,0.00,Wunderground PWS Mod,2013-02-15 13:01:00,
2013-02-15 08:11:00,35.2,27.7,29.97,West,265,2.0,6.0,74,0.00,,,0.00,Wunderground PWS Mod,2013-02-15 13:11:00,
2013-02-15 08:21:00,35.8,28.3,29.97,SSW,194,2.0,6.0,74,0.00,,,0.00,Wunderground PWS Mod,2013-02-15 13:21:00,
2013-02-15 08:31:00,36.6,28.8,29.97,South,171,2.0,6.0,73,0.00,,,0.00,Wunderground PWS Mod,2013-02-15 13:31:00,
2013-02-15 08:41:00,37.5,28.9,29.97,South,186,2.0,6.0,71,0.00,,,0.00,Wunderground PWS Mod,2013-02-15 13:41:00,
2013-02-15 08:51:00,38.2,29.3,29.97,SSW,193,3.0,6.0,70,0.00,,,0.00,Wunderground PWS Mod,2013-02-15 13:51:00,
2013-02-15 09:00:00,38.7,29.4,29.97,South,180,2.0,8.0,69,0.00,,,0.00,Wunderground PWS Mod,2013-02-15 14:00:00,
2013-02-15 09:01:00,38.8,29.5,29.97,SSW,213,3.0,3.0,69,0.00,,,0.00,Wunderground PWS Mod,2013-02-15 14:01:00,
2013-02-15 09:11:00,39.3,30.0,29.97,South,175,2.0,8.0,69,0.00,,,0.00,Wunderground PWS Mod,2013-02-15 14:11:00,
2013-02-15 09:21:00,39.9,29.8,29.97,West,270,3.0,8.0,67,0.00,,,0.00,Wunderground PWS Mod,2013-02-15 14:21:00,
2013-02-15 09:31:00,40.4,30.3,29.98,South,184,3.0,3.0,67,0.00,,,0.00,Wunderground PWS Mod,2013-02-15 14:31:00,
2013-02-15 09:41:00,40.9,30.4,29.98,SSW,204,3.0,3.0,66,0.00,,,0.00,Wunderground PWS Mod,2013-02-15 14:41:00,
2013-02-15 09:51:00,41.2,30.3,29.97,SSW,197,3.0,3.0,65,0.00,,,0.00,Wunderground PWS Mod,2013-02-15 14:51:00,
2013-02-15 10:01:00,41.7,30.4,29.97,WSW,244,3.0,8.0,64,0.00,,,0.00,Wunderground PWS Mod,2013-02-15 15:01:00,
2013-02-15 10:10:00,41.6,30.7,29.97,SSW,203,3.0,7.0,65,0.00,,,0.00,Wunderground PWS Mod,2013-02-15 15:10:00,
2013-02-15 10:11:00,42.3,31.0,29.97,SW,231,3.0,7.0,64,0.00,,,0.00,Wunderground PWS Mod,2013-02-15 15:11:00,
2013-02-15 10:21:00,43.0,30.9,29.97,South,169,3.0,3.0,62,0.00,,,0.00,Wunderground PWS Mod,2013-02-15 15:21:00,
2013-02-15 10:31:00,43.2,31.1,29.96,SSW,210,3.0,7.0,62,0.00,,,0.00,Wunderground PWS Mod,2013-02-15 15:31:00,
2013-02-15 10:41:00,43.4,31.2,29.96,SSW,193,4.0,7.0,62,0.00,,,0.00,Wunderground PWS Mod,2013-02-15 15:41:00,
2013-02-15 10:51:00,44.0,31.8,29.96,South,188,3.0,7.0,62,0.00,,,0.00,Wunderground PWS Mod,2013-02-15 15:51:00,
2013-02-15 11:01:00,44.7,31.7,29.95,SSW,208,3.0,7.0,60,0.00,,,0.00,Wunderground PWS Mod,2013-02-15 16:01:00,
2013-02-15 11:11:00,46.2,32.7,29.95,SW,225,3.0,11.0,59,0.00,,,0.00,Wunderground PWS Mod,2013-02-15 16:11:00,
2013-02-15 11:21:00,47.5,33.0,29.95,SE,125,3.0,3.0,57,0.00,,,0.00,Wunderground PWS Mod,2013-02-15 16:21:00,
2013-02-15 11:31:00,48.1,32.7,29.95,SSW,198,3.0,3.0,55,0.00,,,0.00,Wunderground PWS Mod,2013-02-15 16:31:00,
2013-02-15 11:41:00,48.5,32.6,29.95,SSW,212,2.0,11.0,54,0.00,,,0.00,Wunderground PWS Mod,2013-02-15 16:41:00,
2013-02-15 11:51:00,49.4,32.0,29.94,SSW,198,3.0,11.0,51,0.00,,,0.00,Wunderground PWS Mod,2013-02-15 16:51:00,
2013-02-15 12:01:00,50.0,32.1,29.93,West,268,3.0,11.0,50,0.00,,,0.00,Wunderground PWS Mod,2013-02-15 17:01:00,
2013-02-15 12:10:00,50.0,32.1,29.93,South,180,2.0,8.0,50,0.00,,,0.00,Wunderground PWS Mod,2013-02-15 17:10:00,
2013-02-15 12:11:00,50.7,32.2,29.93,WSW,258,3.0,8.0,49,0.00,,,0.00,Wunderground PWS Mod,2013-02-15 17:11:00,
2013-02-15 12:21:00,51.2,31.6,29.92,WSW,244,2.0,8.0,47,0.00,,,0.00,Wunderground PWS Mod,2013-02-15 17:21:00,
2013-02-15 12:31:00,51.3,31.2,29.92,WNW,286,3.0,8.0,46,0.00,,,0.00,Wunderground PWS Mod,2013-02-15 17:31:00,
2013-02-15 12:41:00,51.5,30.8,29.92,SSE,159,3.0,3.0,45,0.00,,,0.00,Wunderground PWS Mod,2013-02-15 17:41:00,
2013-02-15 12:51:00,52.2,30.9,29.91,South,180,3.0,8.0,44,0.00,,,0.00,Wunderground PWS Mod,2013-02-15 17:51:00,
2013-02-15 13:01:00,51.7,32.1,29.91,South,177,2.0,8.0,47,0.00,,,0.00,Wunderground PWS Mod,2013-02-15 18:01:00,
2013-02-15 13:11:00,50.9,32.4,29.91,SSW,193,3.0,10.0,49,0.00,,,0.00,Wunderground PWS Mod,2013-02-15 18:11:00,
2013-02-15 13:21:00,51.1,32.6,29.91,ESE,110,2.0,2.0,49,0.00,,,0.00,Wunderground PWS Mod,2013-02-15 18:21:00,
2013-02-15 13:31:00,51.3,32.8,29.91,SSE,165,3.0,3.0,49,0.00,,,0.00,Wunderground PWS Mod,2013-02-15 18:31:00,
2013-02-15 13:41:00,51.5,32.4,29.91,SSW,198,3.0,3.0,48,0.00,,,0.00,Wunderground PWS Mod,2013-02-15 18:41:00,
2013-02-15 13:51:00,51.6,32.5,29.91,SSE,153,2.0,10.0,48,0.00,,,0.00,Wunderground PWS Mod,2013-02-15 18:51:00,
2013-02-15 14:01:00,51.6,32.5,29.90,SSE,147,4.0,10.0,48,0.00,,,0.00,Wunderground PWS Mod,2013-02-15 19:01:00,
2013-02-15 14:10:00,51.7,32.6,29.90,South,180,3.0,7.0,48,0.00,,,0.00,Wunderground PWS Mod,2013-02-15 19:10:00,
2013-02-15 14:11:00,51.7,32.6,29.90,SE,146,3.0,7.0,48,0.00,,,0.00,Wunderground PWS Mod,2013-02-15 19:11:00,
2013-02-15 14:21:00,52.1,33.0,29.90,South,181,3.0,3.0,48,0.00,,,0.00,Wunderground PWS Mod,2013-02-15 19:21:00,
2013-02-15 14:31:00,51.8,32.7,29.90,SSE,148,3.0,3.0,48,0.00,,,0.00,Wunderground PWS Mod,2013-02-15 19:31:00,
2013-02-15 14:41:00,52.1,32.5,29.90,South,170,3.0,3.0,47,0.00,,,0.00,Wunderground PWS Mod,2013-02-15 19:41:00,
2013-02-15 14:51:00,52.1,32.5,29.90,South,180,2.0,7.0,47,0.00,,,0.00,Wunderground PWS Mod,2013-02-15 19:51:00,
2013-02-15 15:01:00,52.7,32.5,29.90,South,181,2.0,2.0,46,0.00,,,0.00,Wunderground PWS Mod,2013-02-15 20:01:00,
2013-02-15 15:11:00,52.7,31.9,29.90,South,171,2.0,2.0,45,0.00,,,0.00,Wunderground PWS Mod,2013-02-15 20:11:00,
2013-02-15 15:21:00,52.8,32.6,29.90,SSW,209,1.0,1.0,46,0.00,,,0.00,Wunderground PWS Mod,2013-02-15 20:21:00,
2013-02-15 15:31:00,52.4,32.2,29.90,South,188,1.0,7.0,46,0.00,,,0.00,Wunderground PWS Mod,2013-02-15 20:31:00,
2013-02-15 15:41:00,51.9,32.3,29.90,SSW,200,1.0,7.0,47,0.00,,,0.00,Wunderground PWS Mod,2013-02-15 20:41:00,
2013-02-15 15:51:00,51.8,32.2,29.90,SW,215,1.0,7.0,47,0.00,,,0.00,Wunderground PWS Mod,2013-02-15 20:51:00,
2013-02-15 16:01:00,52.5,32.3,29.90,SW,215,1.0,1.0,46,0.00,,,0.00,Wunderground PWS Mod,2013-02-15 21:01:00,
2013-02-15 16:10:00,52.4,32.7,29.90,SW,225,1.0,4.0,47,0.00,,,0.00,Wunderground PWS Mod,2013-02-15 21:10:00,
2013-02-15 16:12:00,52.1,29.7,29.90,WNW,283,2.0,2.0,42,0.00,,,0.00,Wunderground PWS Mod,2013-02-15 21:12:00,
2013-02-15 16:21:00,51.6,29.8,29.91,NW,306,1.0,4.0,43,0.00,,,0.00,Wunderground PWS Mod,2013-02-15 21:21:00,
2013-02-15 16:31:00,51.0,29.8,29.91,West,262,2.0,2.0,44,0.00,,,0.00,Wunderground PWS Mod,2013-02-15 21:31:00,
2013-02-15 16:41:00,50.6,30.0,29.91,West,280,1.0,4.0,45,0.00,,,0.00,Wunderground PWS Mod,2013-02-15 21:41:00,
2013-02-15 16:51:00,49.7,29.7,29.92,WNW,294,1.0,1.0,46,0.00,,,0.00,Wunderground PWS Mod,2013-02-15 21:51:00,
2013-02-15 17:01:00,49.4,29.5,29.93,NNW,327,1.0,4.0,46,0.00,,,0.00,Wunderground PWS Mod,2013-02-15 22:01:00,
2013-02-15 17:11:00,48.9,29.5,29.93,NNW,346,1.0,1.0,47,0.00,,,0.00,Wunderground PWS Mod,2013-02-15 22:11:00,
2013-02-15 17:21:00,48.1,29.8,29.93,NNW,346,0.0,3.0,49,0.00,,,0.00,Wunderground PWS Mod,2013-02-15 22:21:00,
2013-02-15 17:31:00,47.6,30.3,29.93,NNW,346,1.0,1.0,51,0.00,,,0.00,Wunderground PWS Mod,2013-02-15 22:31:00,
2013-02-15 17:41:00,47.1,29.4,29.94,ESE,114,1.0,1.0,50,0.00,,,0.00,Wunderground PWS Mod,2013-02-15 22:41:00,
2013-02-15 17:51:00,46.7,29.5,29.94,ESE,115,0.0,3.0,51,0.00,,,0.00,Wunderground PWS Mod,2013-02-15 22:51:00,
2013-02-15 18:01:00,46.4,29.7,29.94,East,86,0.0,3.0,52,0.00,,,0.00,Wunderground PWS Mod,2013-02-15 23:01:00,
2013-02-15 18:10:00,46.4,29.7,29.94,NNW,338,0.0,3.0,52,0.00,,,0.00,Wunderground PWS Mod,2013-02-15 23:10:00,
2013-02-15 18:11:00,45.9,29.2,29.95,SE,134,0.0,3.0,52,0.00,,,0.00,Wunderground PWS Mod,2013-02-15 23:11:00,
2013-02-15 18:21:00,45.5,29.3,29.95,SE,130,0.0,3.0,53,0.00,,,0.00,Wunderground PWS Mod,2013-02-15 23:21:00,
2013-02-15 18:31:00,45.3,29.2,29.96,NNE,24,0.0,3.0,53,0.00,,,0.00,Wunderground PWS Mod,2013-02-15 23:31:00,
2013-02-15 18:41:00,44.7,29.1,29.96,North,5,0.0,3.0,54,0.00,,,0.00,Wunderground PWS Mod,2013-02-15 23:41:00,
2013-02-15 18:51:00,44.1,28.5,29.96,North,355,0.0,3.0,54,0.00,,,0.00,Wunderground PWS Mod,2013-02-15 23:51:00,
2013-02-15 19:01:00,43.6,28.5,29.96,North,355,0.0,3.0,55,0.00,,,0.00,Wunderground PWS Mod,2013-02-16 00:01:00,
2013-02-15 19:11:00,43.1,28.5,29.96,ESE,103,0.0,3.0,56,0.00,,,0.00,Wunderground PWS Mod,2013-02-16 00:11:00,
2013-02-15 19:21:00,42.8,27.7,29.97,ENE,73,0.0,3.0,55,0.00,,,0.00,Wunderground PWS Mod,2013-02-16 00:21:00,
2013-02-15 19:31:00,42.7,27.6,29.96,NE,39,0.0,3.0,55,0.00,,,0.00,Wunderground PWS Mod,2013-02-16 00:31:00,
2013-02-15 19:41:00,42.4,27.8,29.95,NNW,346,0.0,3.0,56,0.00,,,0.00,Wunderground PWS Mod,2013-02-16 00:41:00,
2013-02-15 19:51:00,42.2,27.6,29.95,East,92,1.0,1.0,56,0.00,,,0.00,Wunderground PWS Mod,2013-02-16 00:51:00,
2013-02-15 20:01:00,41.9,27.3,29.96,North,360,1.0,1.0,56,0.00,,,0.00,Wunderground PWS Mod,2013-02-16 01:01:00,
2013-02-15 20:10:00,41.9,26.9,29.96,NNE,23,1.0,4.0,55,0.00,,,0.00,Wunderground PWS Mod,2013-02-16 01:10:00,
2013-02-15 20:11:00,41.6,27.1,29.96,NNW,343,1.0,4.0,56,0.00,,,0.00,Wunderground PWS Mod,2013-02-16 01:11:00,
2013-02-15 20:21:00,41.5,27.0,29.96,North,360,1.0,1.0,56,0.00,,,0.00,Wunderground PWS Mod,2013-02-16 01:21:00,
2013-02-15 20:31:00,41.4,26.9,29.97,ENE,60,0.0,4.0,56,0.00,,,0.00,Wunderground PWS Mod,2013-02-16 01:31:00,
2013-02-15 20:41:00,41.3,26.8,29.97,North,9,1.0,1.0,56,0.00,,,0.00,Wunderground PWS Mod,2013-02-16 01:41:00,
2013-02-15 20:51:00,41.1,26.6,29.97,NE,38,1.0,1.0,56,0.00,,,0.00,Wunderground PWS Mod,2013-02-16 01:51:00,
2013-02-15 21:01:00,40.9,26.4,29.97,NE,51,0.0,4.0,56,0.00,,,0.00,Wunderground PWS Mod,2013-02-16 02:01:00,
2013-02-15 21:11:00,40.7,26.6,29.97,SE,131,0.0,4.0,57,0.00,,,0.00,Wunderground PWS Mod,2013-02-16 02:11:00,
2013-02-15 21:21:00,40.5,26.4,29.98,North,5,0.0,4.0,57,0.00,,,0.00,Wunderground PWS Mod,2013-02-16 02:21:00,
2013-02-15 21:31:00,40.3,26.3,29.98,NNE,15,1.0,1.0,57,0.00,,,0.00,Wunderground PWS Mod,2013-02-16 02:31:00,
2013-02-15 21:41:00,40.1,26.5,29.97,North,360,1.0,4.0,58,0.00,,,0.00,Wunderground PWS Mod,2013-02-16 02:41:00,
2013-02-15 21:51:00,39.8,26.6,29.97,ENE,65,1.0,1.0,59,0.00,,,0.00,Wunderground PWS Mod,2013-02-16 02:51:00,
2013-02-15 22:01:00,39.6,26.4,29.97,NNE,22,1.0,4.0,59,0.00,,,0.00,Wunderground PWS Mod,2013-02-16 03:01:00,
2013-02-15 22:10:00,39.6,26.4,29.97,NE,45,1.0,4.0,59,0.00,,,0.00,Wunderground PWS Mod,2013-02-16 03:10:00,
2013-02-15 22:11:00,39.5,26.3,29.98,North,355,1.0,4.0,59,0.00,,,0.00,Wunderground PWS Mod,2013-02-16 03:11:00,
2013-02-15 22:21:00,39.3,26.6,29.98,North,351,2.0,2.0,60,0.00,,,0.00,Wunderground PWS Mod,2013-02-16 03:21:00,
2013-02-15 22:31:00,39.1,27.2,29.99,NW,322,1.0,4.0,62,0.00,,,0.00,Wunderground PWS Mod,2013-02-16 03:31:00,
2013-02-15 22:41:00,38.8,26.9,30.00,WSW,248,1.0,4.0,62,0.00,,,0.00,Wunderground PWS Mod,2013-02-16 03:41:00,
2013-02-15 22:51:00,38.6,27.5,29.99,WNW,300,2.0,2.0,64,0.00,,,0.00,Wunderground PWS Mod,2013-02-16 03:51:00,
2013-02-15 23:01:00,38.1,27.4,29.99,North,10,2.0,4.0,65,0.00,,,0.00,Wunderground PWS Mod,2013-02-16 04:01:00,
2013-02-15 23:11:00,37.9,27.5,30.00,East,90,2.0,2.0,66,0.00,,,0.00,Wunderground PWS Mod,2013-02-16 04:11:00,
2013-02-15 23:21:00,37.7,27.4,30.01,South,183,1.0,9.0,66,0.00,,,0.00,Wunderground PWS Mod,2013-02-16 04:21:00,
2013-02-15 23:31:00,37.5,28.9,30.02,NNE,28,2.0,9.0,71,0.00,,,0.00,Wunderground PWS Mod,2013-02-16 04:31:00,
2013-02-15 23:41:00,36.4,29.9,30.02,NNE,17,2.0,9.0,77,0.00,,,0.00,Wunderground PWS Mod,2013-02-16 04:41:00,
2013-02-15 23:51:00,35.3,30.1,30.02,North,355,2.0,9.0,81,0.00,,,0.00,Wunderground PWS Mod,2013-02-16 04:51:00,